Location: Buckeye Ditch
(40.9104°N, 122.9517°W)
Time: 20:48:23
(UTC+00:00)

Cosmos 1553 Rocket - Visible Passes

Search period start: 22 July 2024 00:00
Search period end: 01 August 2024 00:00
Orbit: 942 x 1006 km, 82.9° (Epoch: 22 July)

Date Brightness Start Highest point End Pass type
(mag) Time Alt. Az. Time Alt. Az. Time Alt. Az.
23 Jul 6.7 11:39:30 10° ESE 11:42:37 14° E 11:45:46 10° NE visible
24 Jul 6.2 12:02:10 10° SE 12:07:12 27° E 12:12:18 10° NNE visible
25 Jul 5.1 12:26:01 10° SSE 12:31:55 48° E 12:37:57 10° NNE visible
26 Jul 6.8 11:10:32 10° E 11:12:34 12° ENE 11:14:35 10° ENE visible
27 Jul 6.3 11:32:25 10° SE 11:37:04 22° E 11:41:46 10° NE visible
28 Jul 5.4 11:56:01 10° SSE 12:01:45 40° E 12:07:36 10° NNE visible
29 Jul 4.4 12:20:24 10° S 12:26:36 73° E 12:32:57 10° NNE visible
30 Jul 6.4 11:02:49 10° ESE 11:06:58 19° E 11:11:09 10° NE visible
31 Jul 5.6 11:26:04 10° SSE 11:31:35 34° E 11:37:12 10° NNE visible
